Year,Month,Day,Hour,Minute,Value (Times are PST for temperature in C)
2011,08,26,00,00,16.90
2011,08,26,00,01,16.80
2011,08,26,00,02,16.80
2011,08,26,00,03,16.80
2011,08,26,00,04,16.80
2011,08,26,00,05,16.70
2011,08,26,00,06,16.70
2011,08,26,00,07,16.70
2011,08,26,00,08,16.70
2011,08,26,00,09,16.70
2011,08,26,00,10,16.70
2011,08,26,00,11,16.70
2011,08,26,00,12,16.70
2011,08,26,00,13,16.60
2011,08,26,00,14,16.60
2011,08,26,00,15,16.60
2011,08,26,00,16,16.50
2011,08,26,00,17,16.40
2011,08,26,00,18,16.40
2011,08,26,00,19,16.30
2011,08,26,00,20,16.30
2011,08,26,00,21,16.30
2011,08,26,00,22,16.20
2011,08,26,00,23,16.10
2011,08,26,00,24,16.10
2011,08,26,00,25,16.10
2011,08,26,00,26,16.10
2011,08,26,00,27,16.00
2011,08,26,00,28,15.90
2011,08,26,00,29,15.90
2011,08,26,00,30,15.80
2011,08,26,00,31,15.80
2011,08,26,00,32,15.80
2011,08,26,00,33,15.80
2011,08,26,00,34,15.80
2011,08,26,00,35,15.80
2011,08,26,00,36,15.80
2011,08,26,00,37,15.80
2011,08,26,00,38,15.70
2011,08,26,00,39,15.70
2011,08,26,00,40,15.70
2011,08,26,00,41,15.70
2011,08,26,00,42,15.70
2011,08,26,00,43,15.60
2011,08,26,00,44,15.60
2011,08,26,00,45,15.60
2011,08,26,00,46,15.60
2011,08,26,00,47,15.60
2011,08,26,00,48,15.60
2011,08,26,00,49,15.60
2011,08,26,00,50,15.60
2011,08,26,00,51,15.60
2011,08,26,00,52,15.60
2011,08,26,00,53,15.60
2011,08,26,00,54,15.60
2011,08,26,00,55,15.60
2011,08,26,00,56,15.50
2011,08,26,00,57,15.50
2011,08,26,00,58,15.50
2011,08,26,00,59,15.40
2011,08,26,01,00,15.40
2011,08,26,01,01,15.40
2011,08,26,01,02,15.40
2011,08,26,01,03,15.30
2011,08,26,01,04,15.30
2011,08,26,01,05,15.30
2011,08,26,01,06,15.30
2011,08,26,01,07,15.30
2011,08,26,01,08,15.30
2011,08,26,01,09,15.30
2011,08,26,01,10,15.30
2011,08,26,01,11,15.30
2011,08,26,01,12,15.30
2011,08,26,01,13,15.30
2011,08,26,01,14,15.30
2011,08,26,01,15,15.30
2011,08,26,01,16,15.30
2011,08,26,01,17,15.30
2011,08,26,01,18,15.40
2011,08,26,01,19,15.40
2011,08,26,01,20,15.50
2011,08,26,01,21,15.50
2011,08,26,01,22,15.50
2011,08,26,01,23,15.50
2011,08,26,01,24,15.50
2011,08,26,01,25,15.50
2011,08,26,01,26,15.50
2011,08,26,01,27,15.50
2011,08,26,01,28,15.40
2011,08,26,01,29,15.40
2011,08,26,01,30,15.30
2011,08,26,01,31,15.30
2011,08,26,01,32,15.30
2011,08,26,01,33,15.20
2011,08,26,01,34,15.10
2011,08,26,01,35,15.10
2011,08,26,01,36,15.00
2011,08,26,01,37,15.00
2011,08,26,01,38,14.90
2011,08,26,01,39,14.90
2011,08,26,01,40,14.90
2011,08,26,01,41,14.80
2011,08,26,01,42,14.80
2011,08,26,01,43,14.80
2011,08,26,01,44,14.80
2011,08,26,01,45,14.80
2011,08,26,01,46,14.80
2011,08,26,01,47,14.80
2011,08,26,01,48,14.80
2011,08,26,01,49,14.80
2011,08,26,01,50,14.80
2011,08,26,01,51,14.80
2011,08,26,01,52,14.80
2011,08,26,01,53,14.80
2011,08,26,01,54,14.80
2011,08,26,01,55,14.80
2011,08,26,01,56,14.80
2011,08,26,01,57,14.80
2011,08,26,01,58,14.80
2011,08,26,01,59,14.70
2011,08,26,02,00,14.70
2011,08,26,02,01,14.60
2011,08,26,02,02,14.60
2011,08,26,02,03,14.50
2011,08,26,02,04,14.40
2011,08,26,02,05,14.30
2011,08,26,02,06,14.20
2011,08,26,02,07,14.20
2011,08,26,02,08,14.20
2011,08,26,02,09,14.10
2011,08,26,02,10,14.10
2011,08,26,02,11,14.10
2011,08,26,02,12,14.10
2011,08,26,02,13,14.10
2011,08,26,02,14,14.10
2011,08,26,02,15,14.10
2011,08,26,02,16,14.10
2011,08,26,02,17,14.20
2011,08,26,02,18,14.20
2011,08,26,02,19,14.20
2011,08,26,02,20,14.20
2011,08,26,02,21,14.20
2011,08,26,02,22,14.20
2011,08,26,02,23,14.20
2011,08,26,02,24,14.20
2011,08,26,02,25,14.20
2011,08,26,02,26,14.10
2011,08,26,02,27,14.10
2011,08,26,02,28,14.10
2011,08,26,02,29,14.00
2011,08,26,02,30,14.00
2011,08,26,02,31,14.00
2011,08,26,02,32,14.00
2011,08,26,02,33,13.90
2011,08,26,02,34,13.90
2011,08,26,02,35,13.90
2011,08,26,02,36,13.90
2011,08,26,02,37,13.90
2011,08,26,02,38,13.80
2011,08,26,02,39,13.80
2011,08,26,02,40,13.80
2011,08,26,02,41,13.80
2011,08,26,02,42,13.80
2011,08,26,02,43,13.80
2011,08,26,02,44,13.80
2011,08,26,02,45,13.70
2011,08,26,02,46,13.70
2011,08,26,02,47,13.70
2011,08,26,02,48,13.70
2011,08,26,02,49,13.70
2011,08,26,02,50,13.70
2011,08,26,02,51,13.70
2011,08,26,02,52,13.70
2011,08,26,02,53,13.70
2011,08,26,02,54,13.60
2011,08,26,02,55,13.60
2011,08,26,02,56,13.60
2011,08,26,02,57,13.60
2011,08,26,02,58,13.60
2011,08,26,02,59,13.50
2011,08,26,03,00,13.50
2011,08,26,03,01,13.50
2011,08,26,03,02,13.50
2011,08,26,03,03,13.50
2011,08,26,03,04,13.50
2011,08,26,03,05,13.50
2011,08,26,03,06,13.50
2011,08,26,03,07,13.50
2011,08,26,03,08,13.50
2011,08,26,03,09,13.50
2011,08,26,03,10,13.50
2011,08,26,03,11,13.50
2011,08,26,03,12,13.50
2011,08,26,03,13,13.50
2011,08,26,03,14,13.50
2011,08,26,03,15,13.50
2011,08,26,03,16,13.60
2011,08,26,03,17,13.60
2011,08,26,03,18,13.60
2011,08,26,03,19,13.60
2011,08,26,03,20,13.60
2011,08,26,03,21,13.70
2011,08,26,03,22,13.70
2011,08,26,03,23,13.70
2011,08,26,03,24,13.70
2011,08,26,03,25,13.70
2011,08,26,03,26,13.70
2011,08,26,03,27,13.70
2011,08,26,03,28,13.70
2011,08,26,03,29,13.70
2011,08,26,03,30,13.80
2011,08,26,03,31,13.80
2011,08,26,03,32,13.80
2011,08,26,03,33,13.80
2011,08,26,03,34,13.80
2011,08,26,03,35,13.90
2011,08,26,03,36,13.90
2011,08,26,03,37,13.90
2011,08,26,03,38,14.00
2011,08,26,03,39,14.00
2011,08,26,03,40,13.90
2011,08,26,03,41,13.90
2011,08,26,03,42,13.90
2011,08,26,03,43,13.90
2011,08,26,03,44,13.90
2011,08,26,03,45,13.90
2011,08,26,03,46,13.90
2011,08,26,03,47,13.90
2011,08,26,03,48,13.90
2011,08,26,03,49,13.90
2011,08,26,03,50,13.90
2011,08,26,03,51,13.90
2011,08,26,03,52,14.00
2011,08,26,03,53,14.00
2011,08,26,03,54,14.00
2011,08,26,03,55,14.00
2011,08,26,03,56,14.00
2011,08,26,03,57,14.00
2011,08,26,03,58,14.10
2011,08,26,03,59,14.10
2011,08,26,04,00,14.10
2011,08,26,04,01,14.10
2011,08,26,04,02,14.10
2011,08,26,04,03,14.10
2011,08,26,04,04,14.10
2011,08,26,04,05,14.10
2011,08,26,04,06,14.10
2011,08,26,04,07,14.10
2011,08,26,04,08,14.10
2011,08,26,04,09,14.00
2011,08,26,04,10,14.00
2011,08,26,04,11,14.00
2011,08,26,04,12,13.90
2011,08,26,04,13,13.90
2011,08,26,04,14,13.90
2011,08,26,04,15,13.90
2011,08,26,04,16,13.80
2011,08,26,04,17,13.80
2011,08,26,04,18,13.80
2011,08,26,04,19,13.80
2011,08,26,04,20,13.80
2011,08,26,04,21,13.80
2011,08,26,04,22,13.70
2011,08,26,04,23,13.70
2011,08,26,04,24,13.70
2011,08,26,04,25,13.70
2011,08,26,04,26,13.70
2011,08,26,04,27,13.70
2011,08,26,04,28,13.70
2011,08,26,04,29,13.70
2011,08,26,04,30,13.70
2011,08,26,04,31,13.70
2011,08,26,04,32,13.70
2011,08,26,04,33,13.70
2011,08,26,04,34,13.70
2011,08,26,04,35,13.60
2011,08,26,04,36,13.60
2011,08,26,04,37,13.60
2011,08,26,04,38,13.60
2011,08,26,04,39,13.70
2011,08,26,04,40,13.70
2011,08,26,04,41,13.70
2011,08,26,04,42,13.70
2011,08,26,04,43,13.70
2011,08,26,04,44,13.70
2011,08,26,04,45,13.70
2011,08,26,04,46,13.70
2011,08,26,04,47,13.70
2011,08,26,04,48,13.70
2011,08,26,04,49,13.70
2011,08,26,04,50,13.70
2011,08,26,04,51,13.70
2011,08,26,04,52,13.80
2011,08,26,04,53,13.80
2011,08,26,04,54,13.80
2011,08,26,04,55,13.80
2011,08,26,04,56,13.80
2011,08,26,04,57,13.80
2011,08,26,04,58,13.80
2011,08,26,04,59,13.80
2011,08,26,05,00,13.80
2011,08,26,05,01,13.80
2011,08,26,05,02,13.80
2011,08,26,05,03,13.80
2011,08,26,05,04,13.90
2011,08,26,05,05,13.90
2011,08,26,05,06,13.90
2011,08,26,05,07,13.90
2011,08,26,05,08,13.90
2011,08,26,05,09,13.90
2011,08,26,05,10,13.90
2011,08,26,05,11,13.90
2011,08,26,05,12,13.90
2011,08,26,05,13,13.90
2011,08,26,05,14,13.90
2011,08,26,05,15,13.90
2011,08,26,05,16,13.80
2011,08,26,05,17,13.80
2011,08,26,05,18,13.80
2011,08,26,05,19,13.80
2011,08,26,05,20,13.80
2011,08,26,05,21,13.90
2011,08,26,05,22,13.90
2011,08,26,05,23,14.00
2011,08,26,05,24,14.00
2011,08,26,05,25,14.00
2011,08,26,05,26,14.00
2011,08,26,05,27,14.00
2011,08,26,05,28,14.00
2011,08,26,05,29,14.00
2011,08,26,05,30,14.00
2011,08,26,05,31,14.00
2011,08,26,05,32,14.00
2011,08,26,05,33,14.00
2011,08,26,05,34,13.90
2011,08,26,05,35,13.90
2011,08,26,05,36,13.90
2011,08,26,05,37,13.90
2011,08,26,05,38,13.90
2011,08,26,05,39,13.90
2011,08,26,05,40,13.90
2011,08,26,05,41,13.90
2011,08,26,05,42,13.80
2011,08,26,05,43,13.80
2011,08,26,05,44,13.80
2011,08,26,05,45,13.80
2011,08,26,05,46,13.80
2011,08,26,05,47,13.90
2011,08,26,05,48,13.90
2011,08,26,05,49,13.90
2011,08,26,05,50,14.00
2011,08,26,05,51,14.00
2011,08,26,05,52,14.00
2011,08,26,05,53,14.00
2011,08,26,05,54,14.00
2011,08,26,05,55,14.10
2011,08,26,05,56,14.20
2011,08,26,05,57,14.20
2011,08,26,05,58,14.20
2011,08,26,05,59,14.20
2011,08,26,06,00,14.20
2011,08,26,06,01,14.20
2011,08,26,06,02,14.20
2011,08,26,06,03,14.10
2011,08,26,06,04,14.10
2011,08,26,06,05,14.10
2011,08,26,06,06,14.00
2011,08,26,06,07,14.00
2011,08,26,06,08,13.90
2011,08,26,06,09,13.90
2011,08,26,06,10,13.90
2011,08,26,06,11,13.90
2011,08,26,06,12,13.80
2011,08,26,06,13,13.80
2011,08,26,06,14,13.80
2011,08,26,06,15,13.80
2011,08,26,06,16,13.80
2011,08,26,06,17,13.80
2011,08,26,06,18,13.80
2011,08,26,06,19,13.80
2011,08,26,06,20,13.80
2011,08,26,06,21,13.80
2011,08,26,06,22,13.80
2011,08,26,06,23,13.80
2011,08,26,06,24,13.70
2011,08,26,06,25,13.70
2011,08,26,06,26,13.70
2011,08,26,06,27,13.70
2011,08,26,06,28,13.70
2011,08,26,06,29,13.70
2011,08,26,06,30,13.70
2011,08,26,06,31,13.70
2011,08,26,06,32,13.70
2011,08,26,06,33,13.70
2011,08,26,06,34,13.70
2011,08,26,06,35,13.80
2011,08,26,06,36,13.90
2011,08,26,06,37,13.90
2011,08,26,06,38,14.00
2011,08,26,06,39,14.10
2011,08,26,06,40,14.20
2011,08,26,06,41,14.20
2011,08,26,06,42,14.20
2011,08,26,06,43,14.20
2011,08,26,06,44,14.30
2011,08,26,06,45,14.30
2011,08,26,06,46,14.40
2011,08,26,06,47,14.40
2011,08,26,06,48,14.40
2011,08,26,06,49,14.40
2011,08,26,06,50,14.40
2011,08,26,06,51,14.40
2011,08,26,06,52,14.40
2011,08,26,06,53,14.40
2011,08,26,06,54,14.40
2011,08,26,06,55,14.40
2011,08,26,06,56,14.50
2011,08,26,06,57,14.50
2011,08,26,06,58,14.50
2011,08,26,06,59,14.60
2011,08,26,07,00,14.60
2011,08,26,07,01,14.70
2011,08,26,07,02,14.80
2011,08,26,07,03,14.80
2011,08,26,07,04,14.70
2011,08,26,07,05,14.70
2011,08,26,07,06,14.60
2011,08,26,07,07,14.60
2011,08,26,07,08,14.60
2011,08,26,07,09,14.60
2011,08,26,07,10,14.60
2011,08,26,07,11,14.60
2011,08,26,07,12,14.70
2011,08,26,07,13,14.80
2011,08,26,07,14,14.80
2011,08,26,07,15,14.80
2011,08,26,07,16,14.90
2011,08,26,07,17,14.90
2011,08,26,07,18,14.90
2011,08,26,07,19,15.00
2011,08,26,07,20,15.00
2011,08,26,07,21,15.10
2011,08,26,07,22,15.10
2011,08,26,07,23,15.20
2011,08,26,07,24,15.30
2011,08,26,07,25,15.40
2011,08,26,07,26,15.50
2011,08,26,07,27,15.60
2011,08,26,07,28,15.60
2011,08,26,07,29,15.70
2011,08,26,07,30,15.80
2011,08,26,07,31,15.80
2011,08,26,07,32,15.90
2011,08,26,07,33,16.00
2011,08,26,07,34,16.10
2011,08,26,07,35,16.20
2011,08,26,07,36,16.20
2011,08,26,07,37,16.30
2011,08,26,07,38,16.40
2011,08,26,07,39,16.40
2011,08,26,07,40,16.50
2011,08,26,07,41,16.60
2011,08,26,07,42,16.70
2011,08,26,07,43,16.70
2011,08,26,07,44,16.80
2011,08,26,07,45,16.80
2011,08,26,07,46,16.80
2011,08,26,07,47,16.90
2011,08,26,07,48,16.80
2011,08,26,07,49,16.80
2011,08,26,07,50,16.90
2011,08,26,07,51,16.90
2011,08,26,07,52,16.90
2011,08,26,07,53,16.90
2011,08,26,07,54,16.90
2011,08,26,07,55,17.00
2011,08,26,07,56,17.00
2011,08,26,07,57,17.00
2011,08,26,07,58,17.00
2011,08,26,07,59,17.00
2011,08,26,08,00,17.10
2011,08,26,08,01,17.10
2011,08,26,08,02,17.10
2011,08,26,08,03,17.20
2011,08,26,08,04,17.20
2011,08,26,08,05,17.20
2011,08,26,08,06,17.30
2011,08,26,08,07,17.30
2011,08,26,08,08,17.30
2011,08,26,08,09,17.30
2011,08,26,08,10,17.40
2011,08,26,08,11,17.40
2011,08,26,08,12,17.50
2011,08,26,08,13,17.60
2011,08,26,08,14,17.80
2011,08,26,08,15,17.80
2011,08,26,08,16,17.90
2011,08,26,08,17,18.10
2011,08,26,08,18,18.10
2011,08,26,08,19,18.20
2011,08,26,08,20,18.40
2011,08,26,08,21,18.50
2011,08,26,08,22,18.50
2011,08,26,08,23,18.60
2011,08,26,08,24,18.60
2011,08,26,08,25,18.70
2011,08,26,08,26,18.70
2011,08,26,08,27,18.70
2011,08,26,08,28,18.70
2011,08,26,08,29,18.60
2011,08,26,08,30,18.50
2011,08,26,08,31,18.40
2011,08,26,08,32,18.20
2011,08,26,08,33,18.10
2011,08,26,08,34,18.00
2011,08,26,08,35,17.90
2011,08,26,08,36,17.90
2011,08,26,08,37,17.90
2011,08,26,08,38,17.90
2011,08,26,08,39,17.90
2011,08,26,08,40,17.90
2011,08,26,08,41,17.90
2011,08,26,08,42,17.90
2011,08,26,08,43,18.10
2011,08,26,08,44,18.10
2011,08,26,08,45,18.20
2011,08,26,08,46,18.20
2011,08,26,08,47,18.30
2011,08,26,08,48,18.40
2011,08,26,08,49,18.50
2011,08,26,08,50,18.50
2011,08,26,08,51,18.50
2011,08,26,08,52,18.50
2011,08,26,08,53,18.50
2011,08,26,08,54,18.50
2011,08,26,08,55,18.50
2011,08,26,08,56,18.40
2011,08,26,08,57,18.40
2011,08,26,08,58,18.40
2011,08,26,08,59,18.30
2011,08,26,09,00,18.30
2011,08,26,09,01,18.30
2011,08,26,09,02,18.30
2011,08,26,09,03,18.30
2011,08,26,09,04,18.30
2011,08,26,09,05,18.40
2011,08,26,09,06,18.40
2011,08,26,09,07,18.40
2011,08,26,09,08,18.50
2011,08,26,09,09,18.50
2011,08,26,09,10,18.60
2011,08,26,09,11,18.60
2011,08,26,09,12,18.70
2011,08,26,09,13,18.80
2011,08,26,09,14,18.90
2011,08,26,09,15,18.90
2011,08,26,09,16,19.00
2011,08,26,09,17,19.10
2011,08,26,09,18,19.10
2011,08,26,09,19,19.20
2011,08,26,09,20,19.20
2011,08,26,09,21,19.20
2011,08,26,09,22,19.30
2011,08,26,09,23,19.30
2011,08,26,09,24,19.30
2011,08,26,09,25,19.30
2011,08,26,09,26,19.30
2011,08,26,09,27,19.30
2011,08,26,09,28,19.30
2011,08,26,09,29,19.30
2011,08,26,09,30,19.40
2011,08,26,09,31,19.40
2011,08,26,09,32,19.40
2011,08,26,09,33,19.40
2011,08,26,09,34,19.40
2011,08,26,09,35,19.40
2011,08,26,09,36,19.40
2011,08,26,09,37,19.40
2011,08,26,09,38,19.50
2011,08,26,09,39,19.50
2011,08,26,09,40,19.60
2011,08,26,09,41,19.70
2011,08,26,09,42,19.80
2011,08,26,09,43,19.80
2011,08,26,09,44,19.80
2011,08,26,09,45,19.80
2011,08,26,09,46,19.80
2011,08,26,09,47,19.80
2011,08,26,09,48,19.70
2011,08,26,09,49,19.70
2011,08,26,09,50,19.70
2011,08,26,09,51,19.70
2011,08,26,09,52,19.70
2011,08,26,09,53,19.70
2011,08,26,09,54,19.70
2011,08,26,09,55,19.70
2011,08,26,09,56,19.70
2011,08,26,09,57,19.90
2011,08,26,09,58,19.90
2011,08,26,09,59,19.90
2011,08,26,10,00,19.90
2011,08,26,10,01,19.90
2011,08,26,10,02,19.90
2011,08,26,10,03,19.90
2011,08,26,10,04,19.80
2011,08,26,10,05,19.80
2011,08,26,10,06,19.80
2011,08,26,10,07,19.90
2011,08,26,10,08,19.90
2011,08,26,10,09,19.90
2011,08,26,10,10,19.90
2011,08,26,10,11,19.90
2011,08,26,10,12,19.90
2011,08,26,10,13,19.90
2011,08,26,10,14,19.90
2011,08,26,10,15,19.90
2011,08,26,10,16,19.90
2011,08,26,10,17,20.00
2011,08,26,10,18,20.10
2011,08,26,10,19,20.10
2011,08,26,10,20,20.10
2011,08,26,10,21,20.10
2011,08,26,10,22,20.10
2011,08,26,10,23,20.10
2011,08,26,10,24,20.20
2011,08,26,10,25,20.10
2011,08,26,10,26,20.10
2011,08,26,10,27,19.90
2011,08,26,10,28,19.90
2011,08,26,10,29,19.90
2011,08,26,10,30,19.90
2011,08,26,10,31,19.90
2011,08,26,10,32,20.10
2011,08,26,10,33,20.00
2011,08,26,10,34,20.10
2011,08,26,10,35,20.10
2011,08,26,10,36,20.10
2011,08,26,10,37,20.10
2011,08,26,10,38,20.10
2011,08,26,10,39,20.10
2011,08,26,10,40,20.10
2011,08,26,10,41,20.20
2011,08,26,10,42,20.20
2011,08,26,10,43,20.20
2011,08,26,10,44,20.20
2011,08,26,10,45,20.20
2011,08,26,10,46,20.20
2011,08,26,10,47,20.20
2011,08,26,10,48,20.30
2011,08,26,10,49,20.30
2011,08,26,10,50,20.40
2011,08,26,10,51,20.40
2011,08,26,10,52,20.40
2011,08,26,10,53,20.40
2011,08,26,10,54,20.40
2011,08,26,10,55,20.40
2011,08,26,10,56,20.40
2011,08,26,10,57,20.40
2011,08,26,10,58,20.30
2011,08,26,10,59,20.30
2011,08,26,11,00,20.20
2011,08,26,11,01,20.20
2011,08,26,11,02,20.20
2011,08,26,11,03,20.20
2011,08,26,11,04,20.20
2011,08,26,11,05,20.30
2011,08,26,11,06,20.30
2011,08,26,11,07,20.40
2011,08,26,11,08,20.40
2011,08,26,11,09,20.40
2011,08,26,11,10,20.40
2011,08,26,11,11,20.50
2011,08,26,11,12,20.50
2011,08,26,11,13,20.50
2011,08,26,11,14,20.50
2011,08,26,11,15,20.50
2011,08,26,11,16,20.50
2011,08,26,11,17,20.50
2011,08,26,11,18,20.40
2011,08,26,11,19,20.40
2011,08,26,11,20,20.40
2011,08,26,11,21,20.30
2011,08,26,11,22,20.30
2011,08,26,11,23,20.30
2011,08,26,11,24,20.30
2011,08,26,11,25,20.20
2011,08,26,11,26,20.20
2011,08,26,11,27,20.20
2011,08,26,11,28,20.20
2011,08,26,11,29,20.20
2011,08,26,11,30,20.20
2011,08,26,11,31,20.20
2011,08,26,11,32,20.30
2011,08,26,11,33,20.30
2011,08,26,11,34,20.40
2011,08,26,11,35,20.40
2011,08,26,11,36,20.50
2011,08,26,11,37,20.50
2011,08,26,11,38,20.60
2011,08,26,11,39,20.70
2011,08,26,11,40,20.70
2011,08,26,11,41,20.80
2011,08,26,11,42,20.80
2011,08,26,11,43,21.00
2011,08,26,11,44,21.10
2011,08,26,11,45,21.20
2011,08,26,11,46,21.20
2011,08,26,11,47,21.20
2011,08,26,11,48,21.30
2011,08,26,11,49,21.20
2011,08,26,11,50,21.20
2011,08,26,11,51,21.20
2011,08,26,11,52,21.20
2011,08,26,11,53,21.20
2011,08,26,11,54,21.20
2011,08,26,11,55,21.20
2011,08,26,11,56,21.20
2011,08,26,11,57,21.20
2011,08,26,11,58,21.20
2011,08,26,11,59,21.30
2011,08,26,12,00,21.30
2011,08,26,12,01,21.30
2011,08,26,12,02,21.30
2011,08,26,12,03,21.30
2011,08,26,12,04,21.20
2011,08,26,12,05,21.10
2011,08,26,12,06,21.10
2011,08,26,12,07,21.00
2011,08,26,12,08,21.00
2011,08,26,12,09,21.00
2011,08,26,12,10,21.10
2011,08,26,12,11,21.10
2011,08,26,12,12,21.10
2011,08,26,12,13,21.10
2011,08,26,12,14,21.10
2011,08,26,12,15,21.10
2011,08,26,12,16,21.20
2011,08,26,12,17,21.10
2011,08,26,12,18,21.10
2011,08,26,12,19,21.10
2011,08,26,12,20,21.10
2011,08,26,12,21,21.10
2011,08,26,12,22,21.10
2011,08,26,12,23,21.10
2011,08,26,12,24,21.20
2011,08,26,12,25,21.30
2011,08,26,12,26,21.30
2011,08,26,12,27,21.30
2011,08,26,12,28,21.40
2011,08,26,12,29,21.50
2011,08,26,12,30,21.60
2011,08,26,12,31,21.70
2011,08,26,12,32,21.70
2011,08,26,12,33,21.70
2011,08,26,12,34,21.70
2011,08,26,12,35,21.70
2011,08,26,12,36,21.80
2011,08,26,12,37,21.90
2011,08,26,12,38,21.90
2011,08,26,12,39,22.00
2011,08,26,12,40,22.00
2011,08,26,12,41,22.10
2011,08,26,12,42,22.10
2011,08,26,12,43,22.10
2011,08,26,12,44,22.10
2011,08,26,12,45,22.10
2011,08,26,12,46,22.00
2011,08,26,12,47,22.00
2011,08,26,12,48,22.00
2011,08,26,12,49,22.00
2011,08,26,12,50,22.00
2011,08,26,12,51,22.00
2011,08,26,12,52,22.00
2011,08,26,12,53,22.10
2011,08,26,12,54,22.10
2011,08,26,12,55,22.10
2011,08,26,12,56,22.20
2011,08,26,12,57,22.20
2011,08,26,12,58,22.20
2011,08,26,12,59,22.20
2011,08,26,13,00,22.20
2011,08,26,13,01,22.30
2011,08,26,13,02,22.30
2011,08,26,13,03,22.30
2011,08,26,13,04,22.30
2011,08,26,13,05,22.30
2011,08,26,13,06,22.30
2011,08,26,13,07,22.30
2011,08,26,13,08,22.30
2011,08,26,13,09,22.30
2011,08,26,13,10,22.30
2011,08,26,13,11,22.30
2011,08,26,13,12,22.30
2011,08,26,13,13,22.30
2011,08,26,13,14,22.30
2011,08,26,13,15,22.30
2011,08,26,13,16,22.30
2011,08,26,13,17,22.40
2011,08,26,13,18,22.40
2011,08,26,13,19,22.50
2011,08,26,13,20,22.50
2011,08,26,13,21,22.50
2011,08,26,13,22,22.50
2011,08,26,13,23,22.60
2011,08,26,13,24,22.60
2011,08,26,13,25,22.60
2011,08,26,13,26,22.60
2011,08,26,13,27,22.60
2011,08,26,13,28,22.70
2011,08,26,13,29,22.70
2011,08,26,13,30,22.80
2011,08,26,13,31,22.80
2011,08,26,13,32,22.90
2011,08,26,13,33,22.90
2011,08,26,13,34,22.90
2011,08,26,13,35,23.00
2011,08,26,13,36,23.10
2011,08,26,13,37,23.10
2011,08,26,13,38,23.10
2011,08,26,13,39,23.10
2011,08,26,13,40,23.10
2011,08,26,13,41,23.00
2011,08,26,13,42,22.90
2011,08,26,13,43,22.90
2011,08,26,13,44,22.80
2011,08,26,13,45,22.80
2011,08,26,13,46,22.80
2011,08,26,13,47,22.70
2011,08,26,13,48,22.60
2011,08,26,13,49,22.60
2011,08,26,13,50,22.60
2011,08,26,13,51,22.60
2011,08,26,13,52,22.60
2011,08,26,13,53,22.60
2011,08,26,13,54,22.60
2011,08,26,13,55,22.60
2011,08,26,13,56,22.60
2011,08,26,13,57,22.60
2011,08,26,13,58,22.70
2011,08,26,13,59,22.70
2011,08,26,14,00,22.70
2011,08,26,14,01,22.80
2011,08,26,14,02,22.90
2011,08,26,14,03,22.90
2011,08,26,14,04,22.90
2011,08,26,14,05,22.90
2011,08,26,14,06,22.90
2011,08,26,14,07,22.90
2011,08,26,14,08,22.90
2011,08,26,14,09,22.90
2011,08,26,14,10,22.90
2011,08,26,14,11,22.90
2011,08,26,14,12,22.90
2011,08,26,14,13,22.80
2011,08,26,14,14,22.70
2011,08,26,14,15,22.70
2011,08,26,14,16,22.70
2011,08,26,14,17,22.70
2011,08,26,14,18,22.80
2011,08,26,14,19,22.80
2011,08,26,14,20,22.80
2011,08,26,14,21,22.90
2011,08,26,14,22,22.90
2011,08,26,14,23,22.90
2011,08,26,14,24,23.00
2011,08,26,14,25,23.10
2011,08,26,14,26,23.10
2011,08,26,14,27,23.10
2011,08,26,14,28,23.10
2011,08,26,14,29,23.10
2011,08,26,14,30,23.10
2011,08,26,14,31,23.10
2011,08,26,14,32,23.10
2011,08,26,14,33,23.10
2011,08,26,14,34,23.10
2011,08,26,14,35,23.10
2011,08,26,14,36,23.10
2011,08,26,14,37,23.10
2011,08,26,14,38,23.10
2011,08,26,14,39,23.10
2011,08,26,14,40,23.10
2011,08,26,14,41,23.20
2011,08,26,14,42,23.20
2011,08,26,14,43,23.30
2011,08,26,14,44,23.30
2011,08,26,14,45,23.30
2011,08,26,14,46,23.30
2011,08,26,14,47,23.40
2011,08,26,14,48,23.50
2011,08,26,14,49,23.60
2011,08,26,14,50,23.70
2011,08,26,14,51,23.80
2011,08,26,14,52,23.90
2011,08,26,14,53,23.90
2011,08,26,14,54,24.00
2011,08,26,14,55,23.90
2011,08,26,14,56,23.90
2011,08,26,14,57,23.90
2011,08,26,14,58,23.90
2011,08,26,14,59,23.80
2011,08,26,15,00,23.70
2011,08,26,15,01,23.70
2011,08,26,15,02,23.60
2011,08,26,15,03,23.60
2011,08,26,15,04,23.60
2011,08,26,15,05,23.60
2011,08,26,15,06,23.60
2011,08,26,15,07,23.60
2011,08,26,15,08,23.60
2011,08,26,15,09,23.70
2011,08,26,15,10,23.70
2011,08,26,15,11,23.70
2011,08,26,15,12,23.70
2011,08,26,15,13,23.70
2011,08,26,15,14,23.70
2011,08,26,15,15,23.60
2011,08,26,15,16,23.60
2011,08,26,15,17,23.50
2011,08,26,15,18,23.40
2011,08,26,15,19,23.40
2011,08,26,15,20,23.40
2011,08,26,15,21,23.40
2011,08,26,15,22,23.40
2011,08,26,15,23,23.40
2011,08,26,15,24,23.40
2011,08,26,15,25,23.40
2011,08,26,15,26,23.30
2011,08,26,15,27,23.30
2011,08,26,15,28,23.40
2011,08,26,15,29,23.50
2011,08,26,15,30,23.60
2011,08,26,15,31,23.70
2011,08,26,15,32,23.70
2011,08,26,15,33,23.70
2011,08,26,15,34,23.70
2011,08,26,15,35,23.60
2011,08,26,15,36,23.60
2011,08,26,15,37,23.60
2011,08,26,15,38,23.70
2011,08,26,15,39,23.70
2011,08,26,15,40,23.80
2011,08,26,15,41,23.80
2011,08,26,15,42,23.90
2011,08,26,15,43,23.90
2011,08,26,15,44,24.00
2011,08,26,15,45,24.10
2011,08,26,15,46,24.10
2011,08,26,15,47,24.10
2011,08,26,15,48,24.10
2011,08,26,15,49,24.10
2011,08,26,15,50,24.10
2011,08,26,15,51,24.10
2011,08,26,15,52,24.10
2011,08,26,15,53,24.10
2011,08,26,15,54,24.10
2011,08,26,15,55,24.10
2011,08,26,15,56,23.90
2011,08,26,15,57,23.80
2011,08,26,15,58,23.80
2011,08,26,15,59,23.80
2011,08,26,16,00,23.70
2011,08,26,16,01,23.50
2011,08,26,16,02,23.30
2011,08,26,16,03,23.30
2011,08,26,16,04,23.30
2011,08,26,16,05,23.30
2011,08,26,16,06,23.30
2011,08,26,16,07,23.30
2011,08,26,16,08,23.30
2011,08,26,16,09,23.20
2011,08,26,16,10,23.30
2011,08,26,16,11,23.40
2011,08,26,16,12,23.60
2011,08,26,16,13,23.70
2011,08,26,16,14,23.70
2011,08,26,16,15,23.70
2011,08,26,16,16,23.80
2011,08,26,16,17,23.80
2011,08,26,16,18,23.80
2011,08,26,16,19,23.90
2011,08,26,16,20,24.00
2011,08,26,16,21,24.10
2011,08,26,16,22,24.10
2011,08,26,16,23,24.00
2011,08,26,16,24,23.90
2011,08,26,16,25,23.90
2011,08,26,16,26,23.90
2011,08,26,16,27,23.90
2011,08,26,16,28,23.90
2011,08,26,16,29,23.90
2011,08,26,16,30,24.00
2011,08,26,16,31,24.10
2011,08,26,16,32,24.10
2011,08,26,16,33,24.20
2011,08,26,16,34,24.20
2011,08,26,16,35,24.20
2011,08,26,16,36,24.20
2011,08,26,16,37,24.40
2011,08,26,16,38,24.50
2011,08,26,16,39,24.50
2011,08,26,16,40,24.60
2011,08,26,16,41,24.70
2011,08,26,16,42,24.80
2011,08,26,16,43,24.70
2011,08,26,16,44,24.70
2011,08,26,16,45,24.80
2011,08,26,16,46,24.80
2011,08,26,16,47,24.80
2011,08,26,16,48,24.80
2011,08,26,16,49,24.80
2011,08,26,16,50,24.80
2011,08,26,16,51,24.80
2011,08,26,16,52,24.70
2011,08,26,16,53,24.70
2011,08,26,16,54,24.70
2011,08,26,16,55,24.70
2011,08,26,16,56,24.70
2011,08,26,16,57,24.70
2011,08,26,16,58,24.80
2011,08,26,16,59,24.80
2011,08,26,17,00,24.90
2011,08,26,17,01,24.90
2011,08,26,17,02,25.00
2011,08,26,17,03,25.00
2011,08,26,17,04,25.00
2011,08,26,17,05,24.90
2011,08,26,17,06,24.90
2011,08,26,17,07,24.80
2011,08,26,17,08,24.70
2011,08,26,17,09,24.70
2011,08,26,17,10,24.70
2011,08,26,17,11,24.70
2011,08,26,17,12,24.70
2011,08,26,17,13,24.70
2011,08,26,17,14,24.70
2011,08,26,17,15,24.70
2011,08,26,17,16,24.80
2011,08,26,17,17,24.90
2011,08,26,17,18,25.00
2011,08,26,17,19,25.00